Location: Aciu?a
(46.2833°N, 22.4500°E)
Time: 11:50:24
(UTC+00:00)

Cosmos 2100 Rocket - Pass Details

Date: 25 October 2021
Orbit: 955 x 1001 km, 82.9° (Epoch: 06 December)

Event Time Altitude Azimuth Distance (km) Brightness Sun altitude
Rises 16:59:33 0° 161° (SSE) 3,683 6.8 -16.7°
Reaches altitude 10° 17:02:13 10° 154° (SSE) 2,745 6.1 -17.1°
Maximum altitude 17:07:58 39° 88° (E) 1,462 4.4 -18.1°
Drops below altitude 10° 17:13:47 10° 22° (NNE) 2,781 6.2 -19.1°
Sets 17:16:29 0° 15° (NNE) 3,737 6.9 -19.6°
